GECAM-A (47234 NORAD) Tracking and Keplerian Element Data

This shows tracking and keplerian element data for the satellite.

Feedback or suggestion? Click here.




ElementValue
Catalog47234
NameGECAM-A
Epoch Orbit1835
Epoch Day102.02327072
Epoch Year2021
RAAN312.7686
Inclination29.0001
Eccentricity0.0012709
Argument of Perigee118.9242
Mean Anonmoly241.263
Mean Motion14.9070759
Decay Rate3.43E-06
L11 47234U 20094A 21102.02327072 .00000343 00000-0 20319-4 0 9993
L22 47234 29.0001 312.7686 0012709 118.9242 241.2630 14.90707590 18350

Live tracking and technical data element details for GECAM-A (NORAD 47234). GECAM-A can be tracked NOW for your location showing map with azimuth and elevation plus other details from your city location.

Track the satellite on the map from your city or location and see movement details for azimuth, elevation, latitude, longitude, range, height, and movement on the map or in text.







IsCatalogInMostPopularTable: catalog: 47234, numindb: 40
Update: records affected: 1



GetName: 47234 GECAM-A

Hit Count: updated at: Tue, 13 Apr 2021 04:34:13 GMT